Time,TemperatureF,DewpointF,PressureIn,WindDirection,WindDirectionDegrees,WindSpeedMPH,WindSpeedGustMPH,Humidity,HourlyPrecipIn,Conditions,Clouds,dailyrainin,SoftwareType,DateUTC
2014-01-06 00:04:00,54.3,29.8,30.07,NNW,337,0.0,0.0,39,0.00,,,0.00,LWC V2.10 B1813,2014-01-06 08:04:00,
2014-01-06 00:09:00,54.1,29.6,30.07,NNW,337,2.9,2.9,39,0.00,,,0.00,LWC V2.10 B1813,2014-01-06 08:09:00,
2014-01-06 00:14:00,54.1,29.6,30.08,North,0,0.0,2.9,39,0.00,,,0.00,LWC V2.10 B1813,2014-01-06 08:14:00,
2014-01-06 00:19:00,54.1,29.6,30.08,North,0,6.5,6.5,39,0.00,,,0.00,LWC V2.10 B1813,2014-01-06 08:19:00,
2014-01-06 00:24:00,54.0,29.5,30.08,North,0,0.0,0.0,39,0.00,,,0.00,LWC V2.10 B1813,2014-01-06 08:24:00,
2014-01-06 00:29:00,54.0,29.5,30.08,North,0,0.0,0.0,39,0.00,,,0.00,LWC V2.10 B1813,2014-01-06 08:29:00,
2014-01-06 00:34:00,54.0,29.5,30.08,North,0,0.0,0.0,39,0.00,,,0.00,LWC V2.10 B1813,2014-01-06 08:34:00,
2014-01-06 00:39:00,54.0,30.2,30.08,North,0,0.4,0.4,40,0.00,,,0.00,LWC V2.10 B1813,2014-01-06 08:39:00,
2014-01-06 00:44:00,54.0,30.2,30.08,North,0,0.0,0.0,40,0.00,,,0.00,LWC V2.10 B1813,2014-01-06 08:44:00,
2014-01-06 00:49:00,54.0,30.2,30.08,North,0,1.6,1.6,40,0.00,,,0.00,LWC V2.10 B1813,2014-01-06 08:49:00,
2014-01-06 00:54:00,54.0,30.2,30.07,North,0,0.0,0.0,40,0.00,,,0.00,LWC V2.10 B1813,2014-01-06 08:54:00,
2014-01-06 00:59:00,54.0,30.2,30.08,NNE,22,0.0,0.0,40,0.00,,,0.00,LWC V2.10 B1813,2014-01-06 08:59:00,
2014-01-06 01:04:00,54.0,30.2,30.08,North,0,0.0,0.0,40,0.00,,,0.00,LWC V2.10 B1813,2014-01-06 09:04:00,
2014-01-06 01:09:00,54.0,30.2,30.08,North,0,0.0,0.0,40,0.00,,,0.00,LWC V2.10 B1813,2014-01-06 09:09:00,
2014-01-06 01:14:00,54.0,30.2,30.08,North,0,0.0,0.0,40,0.00,,,0.00,LWC V2.10 B1813,2014-01-06 09:14:00,
2014-01-06 01:19:00,53.8,30.0,30.08,NNE,22,0.0,0.0,40,0.00,,,0.00,LWC V2.10 B1813,2014-01-06 09:19:00,
2014-01-06 01:29:00,53.8,30.6,30.08,NNW,337,0.0,0.0,41,0.00,,,0.00,LWC V2.10 B1813,2014-01-06 09:29:00,
2014-01-06 01:34:00,53.6,30.4,30.09,North,0,0.7,0.7,41,0.00,,,0.00,LWC V2.10 B1813,2014-01-06 09:34:00,
2014-01-06 01:39:00,53.4,30.2,30.08,North,0,0.0,0.0,41,0.00,,,0.00,LWC V2.10 B1813,2014-01-06 09:39:00,
2014-01-06 01:44:00,53.4,30.2,30.08,North,0,0.0,0.0,41,0.00,,,0.00,LWC V2.10 B1813,2014-01-06 09:44:00,
2014-01-06 01:49:00,53.4,30.8,30.09,North,0,0.0,0.0,42,0.00,,,0.00,LWC V2.10 B1813,2014-01-06 09:49:00,
2014-01-06 01:54:00,53.2,30.6,30.09,North,0,1.8,1.8,42,0.00,,,0.00,LWC V2.10 B1813,2014-01-06 09:54:00,
2014-01-06 01:59:00,53.2,31.2,30.09,North,0,1.3,1.3,43,0.00,,,0.00,LWC V2.10 B1813,2014-01-06 09:59:00,
2014-01-06 02:04:00,53.2,31.2,30.09,North,0,2.2,2.2,43,0.00,,,0.00,LWC V2.10 B1813,2014-01-06 10:04:00,
2014-01-06 02:09:00,52.9,30.9,30.09,NNW,337,0.0,0.0,43,0.00,,,0.00,LWC V2.10 B1813,2014-01-06 10:09:00,
2014-01-06 02:14:00,52.9,31.4,30.09,WNW,292,0.0,0.0,44,0.00,,,0.00,LWC V2.10 B1813,2014-01-06 10:14:00,
2014-01-06 02:19:00,52.9,31.4,30.09,North,0,0.0,0.0,44,0.00,,,0.00,LWC V2.10 B1813,2014-01-06 10:19:00,
2014-01-06 02:24:00,52.9,31.4,30.09,North,0,0.0,0.9,44,0.00,,,0.00,LWC V2.10 B1813,2014-01-06 10:24:00,
2014-01-06 02:29:00,52.9,31.4,30.09,NNW,337,0.0,0.0,44,0.00,,,0.00,LWC V2.10 B1813,2014-01-06 10:29:00,
2014-01-06 02:34:00,52.9,32.0,30.09,NNW,337,0.0,0.0,45,0.00,,,0.00,LWC V2.10 B1813,2014-01-06 10:34:00,
2014-01-06 02:39:00,52.9,32.0,30.10,NNW,337,0.0,0.0,45,0.00,,,0.00,LWC V2.10 B1813,2014-01-06 10:39:00,
2014-01-06 02:44:00,52.7,31.8,30.10,NNE,22,0.0,0.0,45,0.00,,,0.00,LWC V2.10 B1813,2014-01-06 10:44:00,
2014-01-06 02:49:00,52.7,31.8,30.10,NW,315,0.0,0.0,45,0.00,,,0.00,LWC V2.10 B1813,2014-01-06 10:49:00,
2014-01-06 02:54:00,52.7,32.4,30.10,NNW,337,0.0,0.0,46,0.00,,,0.00,LWC V2.10 B1813,2014-01-06 10:54:00,
2014-01-06 02:59:00,52.7,32.4,30.09,North,0,0.0,0.0,46,0.00,,,0.00,LWC V2.10 B1813,2014-01-06 10:59:00,
2014-01-06 03:04:00,52.5,32.2,30.09,NNW,337,0.0,0.0,46,0.00,,,0.00,LWC V2.10 B1813,2014-01-06 11:04:00,
2014-01-06 03:09:00,52.5,32.8,30.09,NNW,337,0.0,0.0,47,0.00,,,0.00,LWC V2.10 B1813,2014-01-06 11:09:00,
2014-01-06 03:14:00,52.5,32.8,30.09,NNW,337,0.0,0.0,47,0.00,,,0.00,LWC V2.10 B1813,2014-01-06 11:14:00,
2014-01-06 03:19:00,52.5,32.8,30.09,NNW,337,0.0,0.0,47,0.00,,,0.00,LWC V2.10 B1813,2014-01-06 11:19:00,
2014-01-06 03:24:00,52.5,32.8,30.09,WNW,292,0.0,0.0,47,0.00,,,0.00,LWC V2.10 B1813,2014-01-06 11:24:00,
2014-01-06 03:29:00,52.5,33.3,30.09,NNE,22,0.9,0.9,48,0.00,,,0.00,LWC V2.10 B1813,2014-01-06 11:29:00,
2014-01-06 03:34:00,52.7,33.5,30.09,North,0,0.0,0.0,48,0.00,,,0.00,LWC V2.10 B1813,2014-01-06 11:34:00,
2014-01-06 03:39:00,52.7,33.5,30.09,North,0,0.0,0.4,48,0.00,,,0.00,LWC V2.10 B1813,2014-01-06 11:39:00,
2014-01-06 03:44:00,52.7,33.5,30.09,NNW,337,0.0,0.0,48,0.00,,,0.00,LWC V2.10 B1813,2014-01-06 11:44:00,
2014-01-06 03:49:00,52.7,33.5,30.09,NW,315,0.0,0.0,48,0.00,,,0.00,LWC V2.10 B1813,2014-01-06 11:49:00,
2014-01-06 03:54:00,52.7,33.5,30.09,NNW,337,0.0,0.0,48,0.00,,,0.00,LWC V2.10 B1813,2014-01-06 11:54:00,
2014-01-06 03:59:00,52.9,33.7,30.09,North,0,0.0,0.0,48,0.00,,,0.00,LWC V2.10 B1813,2014-01-06 11:59:00,
2014-01-06 04:04:00,52.7,34.1,30.09,North,0,0.0,0.0,49,0.00,,,0.00,LWC V2.10 B1813,2014-01-06 12:04:00,
2014-01-06 04:09:00,52.7,33.5,30.08,NW,315,1.1,1.1,48,0.00,,,0.00,LWC V2.10 B1813,2014-01-06 12:09:00,
2014-01-06 04:14:00,52.7,33.5,30.08,WNW,292,0.0,0.0,48,0.00,,,0.00,LWC V2.10 B1813,2014-01-06 12:14:00,
2014-01-06 04:19:00,52.9,33.7,30.08,North,0,0.0,0.0,48,0.00,,,0.00,LWC V2.10 B1813,2014-01-06 12:19:00,
2014-01-06 04:24:00,52.7,34.1,30.08,North,0,0.0,0.0,49,0.00,,,0.00,LWC V2.10 B1813,2014-01-06 12:24:00,
2014-01-06 04:29:00,52.5,33.9,30.08,North,0,0.0,0.0,49,0.00,,,0.00,LWC V2.10 B1813,2014-01-06 12:29:00,
2014-01-06 04:34:00,52.5,33.9,30.08,North,0,2.5,2.5,49,0.00,,,0.00,LWC V2.10 B1813,2014-01-06 12:34:00,
2014-01-06 04:39:00,52.5,33.9,30.08,NNW,337,0.0,0.0,49,0.00,,,0.00,LWC V2.10 B1813,2014-01-06 12:39:00,
2014-01-06 04:44:00,52.5,33.9,30.08,North,0,0.0,0.0,49,0.00,,,0.00,LWC V2.10 B1813,2014-01-06 12:44:00,
2014-01-06 04:49:00,52.5,33.9,30.08,North,0,0.0,0.0,49,0.00,,,0.00,LWC V2.10 B1813,2014-01-06 12:49:00,
2014-01-06 04:54:00,52.5,33.9,30.08,North,0,0.0,0.0,49,0.00,,,0.00,LWC V2.10 B1813,2014-01-06 12:54:00,
2014-01-06 04:59:00,52.5,33.9,30.09,NNW,337,0.7,0.7,49,0.00,,,0.00,LWC V2.10 B1813,2014-01-06 12:59:00,
2014-01-06 05:04:00,52.5,33.9,30.09,North,0,2.5,2.5,49,0.00,,,0.00,LWC V2.10 B1813,2014-01-06 13:04:00,
2014-01-06 05:09:00,52.5,34.4,30.09,North,0,0.2,0.2,50,0.00,,,0.00,LWC V2.10 B1813,2014-01-06 13:09:00,
2014-01-06 05:14:00,52.3,34.3,30.09,NE,45,0.0,2.0,50,0.00,,,0.00,LWC V2.10 B1813,2014-01-06 13:14:00,
2014-01-06 05:19:00,52.3,34.3,30.09,NNE,22,4.7,4.7,50,0.00,,,0.00,LWC V2.10 B1813,2014-01-06 13:19:00,
2014-01-06 05:24:00,52.3,34.3,30.09,NNW,337,0.0,0.0,50,0.00,,,0.00,LWC V2.10 B1813,2014-01-06 13:24:00,
2014-01-06 05:29:00,52.3,34.3,30.09,North,0,0.0,0.0,50,0.00,,,0.00,LWC V2.10 B1813,2014-01-06 13:29:00,
2014-01-06 05:34:00,52.3,34.3,30.09,North,0,1.6,1.6,50,0.00,,,0.00,LWC V2.10 B1813,2014-01-06 13:34:00,
2014-01-06 05:39:00,52.3,34.7,30.09,North,0,2.5,2.5,51,0.00,,,0.00,LWC V2.10 B1813,2014-01-06 13:39:00,
2014-01-06 05:44:00,52.3,34.7,30.09,NNW,337,0.0,4.2,51,0.00,,,0.00,LWC V2.10 B1813,2014-01-06 13:44:00,
2014-01-06 05:49:00,52.2,34.6,30.09,North,0,0.0,0.0,51,0.00,,,0.00,LWC V2.10 B1813,2014-01-06 13:49:00,
2014-01-06 05:54:00,52.2,34.6,30.09,North,0,5.6,5.6,51,0.00,,,0.00,LWC V2.10 B1813,2014-01-06 13:54:00,
2014-01-06 05:59:00,52.2,34.6,30.09,North,0,0.0,0.0,51,0.00,,,0.00,LWC V2.10 B1813,2014-01-06 13:59:00,
2014-01-06 06:04:00,52.2,34.6,30.09,NNW,337,0.0,0.0,51,0.00,,,0.00,LWC V2.10 B1813,2014-01-06 14:04:00,
2014-01-06 06:09:00,52.0,34.9,30.10,NNW,337,0.0,1.3,52,0.00,,,0.00,LWC V2.10 B1813,2014-01-06 14:09:00,
2014-01-06 06:14:00,51.8,34.7,30.10,WNW,292,0.0,0.0,52,0.00,,,0.00,LWC V2.10 B1813,2014-01-06 14:14:00,
2014-01-06 06:19:00,51.6,34.5,30.10,North,0,0.0,0.0,52,0.00,,,0.00,LWC V2.10 B1813,2014-01-06 14:19:00,
2014-01-06 06:24:00,51.6,34.5,30.10,WNW,292,0.0,5.4,52,0.00,,,0.00,LWC V2.10 B1813,2014-01-06 14:24:00,
2014-01-06 06:29:00,51.6,34.5,30.10,North,0,0.0,0.0,52,0.00,,,0.00,LWC V2.10 B1813,2014-01-06 14:29:00,
2014-01-06 06:34:00,51.8,34.7,30.10,North,0,4.0,4.0,52,0.00,,,0.00,LWC V2.10 B1813,2014-01-06 14:34:00,
2014-01-06 06:39:00,51.8,35.2,30.10,NNW,337,0.0,0.0,53,0.00,,,0.00,LWC V2.10 B1813,2014-01-06 14:39:00,
2014-01-06 06:44:00,51.8,35.2,30.10,NNW,337,1.3,1.3,53,0.00,,,0.00,LWC V2.10 B1813,2014-01-06 14:44:00,
2014-01-06 06:49:00,51.6,35.0,30.11,NW,315,1.1,1.1,53,0.00,,,0.00,LWC V2.10 B1813,2014-01-06 14:49:00,
2014-01-06 06:54:00,51.6,35.0,30.11,NNW,337,1.6,1.6,53,0.00,,,0.00,LWC V2.10 B1813,2014-01-06 14:54:00,
2014-01-06 06:59:00,51.6,35.4,30.11,NW,315,0.0,0.0,54,0.00,,,0.00,LWC V2.10 B1813,2014-01-06 14:59:00,
2014-01-06 07:04:00,51.6,35.4,30.11,WNW,292,0.9,0.9,54,0.00,,,0.00,LWC V2.10 B1813,2014-01-06 15:04:00,
2014-01-06 07:09:00,51.6,35.4,30.12,WNW,292,0.7,1.6,54,0.00,,,0.00,LWC V2.10 B1813,2014-01-06 15:09:00,
2014-01-06 07:14:00,51.6,35.4,30.12,NW,315,0.0,0.0,54,0.00,,,0.00,LWC V2.10 B1813,2014-01-06 15:14:00,
2014-01-06 07:19:00,51.6,35.4,30.12,North,0,0.0,0.0,54,0.00,,,0.00,LWC V2.10 B1813,2014-01-06 15:19:00,
2014-01-06 07:24:00,51.4,35.7,30.12,WNW,292,0.0,0.4,55,0.00,,,0.00,LWC V2.10 B1813,2014-01-06 15:24:00,
2014-01-06 07:29:00,51.3,35.6,30.12,WNW,292,0.0,0.0,55,0.00,,,0.00,LWC V2.10 B1813,2014-01-06 15:29:00,
2014-01-06 07:34:00,51.3,35.6,30.12,NW,315,0.0,0.0,55,0.00,,,0.00,LWC V2.10 B1813,2014-01-06 15:34:00,
2014-01-06 07:39:00,51.3,35.6,30.12,WNW,292,1.6,1.6,55,0.00,,,0.00,LWC V2.10 B1813,2014-01-06 15:39:00,
2014-01-06 07:44:00,51.4,35.7,30.13,WNW,292,1.8,1.8,55,0.00,,,0.00,LWC V2.10 B1813,2014-01-06 15:44:00,
2014-01-06 07:49:00,51.4,35.7,30.12,NNW,337,0.9,0.9,55,0.00,,,0.00,LWC V2.10 B1813,2014-01-06 15:49:00,
2014-01-06 07:54:00,51.6,35.9,30.12,WNW,292,0.0,1.3,55,0.00,,,0.00,LWC V2.10 B1813,2014-01-06 15:54:00,
2014-01-06 07:59:00,51.6,35.4,30.13,WNW,292,0.0,0.4,54,0.00,,,0.00,LWC V2.10 B1813,2014-01-06 15:59:00,
2014-01-06 08:04:00,51.6,35.9,30.13,NW,315,2.0,2.0,55,0.00,,,0.00,LWC V2.10 B1813,2014-01-06 16:04:00,
2014-01-06 08:09:00,51.8,36.0,30.13,NW,315,0.0,0.0,55,0.00,,,0.00,LWC V2.10 B1813,2014-01-06 16:09:00,
2014-01-06 08:14:00,52.0,36.2,30.13,NW,315,0.0,0.0,55,0.00,,,0.00,LWC V2.10 B1813,2014-01-06 16:14:00,
2014-01-06 08:19:00,52.0,36.2,30.13,NW,315,0.0,0.0,55,0.00,,,0.00,LWC V2.10 B1813,2014-01-06 16:19:00,
2014-01-06 08:24:00,52.3,36.6,30.14,WNW,292,0.0,0.0,55,0.00,,,0.00,LWC V2.10 B1813,2014-01-06 16:24:00,
2014-01-06 08:29:00,52.3,36.6,30.14,WNW,292,0.0,0.0,55,0.00,,,0.00,LWC V2.10 B1813,2014-01-06 16:29:00,
2014-01-06 08:34:00,52.3,36.6,30.14,NNW,337,0.0,0.0,55,0.00,,,0.00,LWC V2.10 B1813,2014-01-06 16:34:00,
2014-01-06 08:39:00,52.7,36.9,30.14,WNW,292,0.0,0.0,55,0.00,,,0.00,LWC V2.10 B1813,2014-01-06 16:39:00,
2014-01-06 08:44:00,52.9,37.1,30.14,NW,315,0.0,0.0,55,0.00,,,0.00,LWC V2.10 B1813,2014-01-06 16:44:00,
2014-01-06 08:49:00,53.2,37.4,30.14,NNW,337,0.0,0.0,55,0.00,,,0.00,LWC V2.10 B1813,2014-01-06 16:49:00,
2014-01-06 08:54:00,53.2,37.4,30.15,NNW,337,0.0,0.0,55,0.00,,,0.00,LWC V2.10 B1813,2014-01-06 16:54:00,
2014-01-06 08:59:00,53.4,37.1,30.15,North,0,0.0,0.0,54,0.00,,,0.00,LWC V2.10 B1813,2014-01-06 16:59:00,
2014-01-06 09:04:00,53.8,37.5,30.15,North,0,0.0,0.0,54,0.00,,,0.00,LWC V2.10 B1813,2014-01-06 17:04:00,
2014-01-06 09:09:00,54.1,37.8,30.15,NNW,337,0.0,0.0,54,0.00,,,0.00,LWC V2.10 B1813,2014-01-06 17:09:00,
2014-01-06 09:14:00,54.3,37.5,30.15,NNW,337,0.0,0.0,53,0.00,,,0.00,LWC V2.10 B1813,2014-01-06 17:14:00,
2014-01-06 09:19:00,54.3,37.9,30.15,WNW,292,0.0,0.0,54,0.00,,,0.00,LWC V2.10 B1813,2014-01-06 17:19:00,
2014-01-06 09:24:00,54.7,37.8,30.15,North,0,0.0,0.0,53,0.00,,,0.00,LWC V2.10 B1813,2014-01-06 17:24:00,
2014-01-06 09:29:00,55.0,38.1,30.15,North,0,3.4,3.4,53,0.00,,,0.00,LWC V2.10 B1813,2014-01-06 17:29:00,
2014-01-06 09:34:00,55.4,38.0,30.15,NNW,337,0.0,0.0,52,0.00,,,0.00,LWC V2.10 B1813,2014-01-06 17:34:00,
2014-01-06 09:39:00,56.1,38.7,30.16,NNW,337,0.0,0.0,52,0.00,,,0.00,LWC V2.10 B1813,2014-01-06 17:39:00,
2014-01-06 09:44:00,56.5,38.6,30.16,North,0,0.0,0.0,51,0.00,,,0.00,LWC V2.10 B1813,2014-01-06 17:44:00,
2014-01-06 09:49:00,56.8,38.5,30.16,North,0,2.0,2.0,50,0.00,,,0.00,LWC V2.10 B1813,2014-01-06 17:49:00,
2014-01-06 09:54:00,57.2,38.3,30.15,NNE,22,6.3,6.3,49,0.00,,,0.00,LWC V2.10 B1813,2014-01-06 17:54:00,
2014-01-06 09:59:00,57.4,37.8,30.16,North,0,1.8,1.8,48,0.00,,,0.00,LWC V2.10 B1813,2014-01-06 17:59:00,
2014-01-06 10:04:00,57.2,37.7,30.16,North,0,0.0,0.0,48,0.00,,,0.00,LWC V2.10 B1813,2014-01-06 18:04:00,
2014-01-06 10:09:00,56.8,37.3,30.15,North,0,0.0,2.5,48,0.00,,,0.00,LWC V2.10 B1813,2014-01-06 18:09:00,
2014-01-06 10:14:00,56.8,37.3,30.15,North,0,1.1,1.1,48,0.00,,,0.00,LWC V2.10 B1813,2014-01-06 18:14:00,
2014-01-06 10:19:00,56.5,37.5,30.15,North,0,0.0,0.0,49,0.00,,,0.00,LWC V2.10 B1813,2014-01-06 18:19:00,
2014-01-06 10:24:00,56.1,37.2,30.15,North,0,4.7,4.7,49,0.00,,,0.00,LWC V2.10 B1813,2014-01-06 18:24:00,
2014-01-06 10:29:00,56.1,37.2,30.15,NNE,22,0.0,0.0,49,0.00,,,0.00,LWC V2.10 B1813,2014-01-06 18:29:00,
2014-01-06 10:34:00,55.9,37.0,30.15,North,0,0.0,0.0,50,0.00,,,0.00,LWC V2.10 B1813,2014-01-06 18:34:00,
2014-01-06 10:39:00,55.9,37.0,30.16,NW,315,0.0,0.0,49,0.00,,,0.00,LWC V2.10 B1813,2014-01-06 18:39:00,
2014-01-06 10:44:00,55.9,37.0,30.15,North,0,1.6,1.6,49,0.00,,,0.00,LWC V2.10 B1813,2014-01-06 18:44:00,
2014-01-06 10:49:00,56.1,37.2,30.15,NNW,337,0.0,0.0,49,0.00,,,0.00,LWC V2.10 B1813,2014-01-06 18:49:00,
2014-01-06 10:54:00,56.1,36.6,30.15,North,0,0.7,1.6,48,0.00,,,0.00,LWC V2.10 B1813,2014-01-06 18:54:00,
2014-01-06 10:59:00,56.5,37.0,30.15,NNW,337,0.0,0.0,48,0.00,,,0.00,LWC V2.10 B1813,2014-01-06 18:59:00,
2014-01-06 11:04:00,56.5,37.0,30.15,WNW,292,0.0,0.0,48,0.00,,,0.00,LWC V2.10 B1813,2014-01-06 19:04:00,
2014-01-06 11:09:00,56.5,36.4,30.15,NW,315,0.0,0.0,47,0.00,,,0.00,LWC V2.10 B1813,2014-01-06 19:09:00,
2014-01-06 11:14:00,56.7,36.0,30.15,WNW,292,0.0,0.0,46,0.00,,,0.00,LWC V2.10 B1813,2014-01-06 19:14:00,
2014-01-06 11:19:00,57.0,35.8,30.15,North,0,0.0,0.0,45,0.00,,,0.00,LWC V2.10 B1813,2014-01-06 19:19:00,
2014-01-06 11:24:00,57.9,36.0,30.14,North,0,0.0,3.8,44,0.00,,,0.00,LWC V2.10 B1813,2014-01-06 19:24:00,
2014-01-06 11:29:00,58.5,35.4,30.14,North,0,4.2,4.2,42,0.00,,,0.00,LWC V2.10 B1813,2014-01-06 19:29:00,
2014-01-06 11:34:00,58.8,34.5,30.13,NW,315,1.1,1.1,41,0.00,,,0.00,LWC V2.10 B1813,2014-01-06 19:34:00,
2014-01-06 11:39:00,58.8,33.8,30.13,NNW,337,2.9,2.9,39,0.00,,,0.00,LWC V2.10 B1813,2014-01-06 19:39:00,
2014-01-06 11:44:00,58.6,33.7,30.13,North,0,0.0,0.0,39,0.00,,,0.00,LWC V2.10 B1813,2014-01-06 19:44:00,
2014-01-06 11:49:00,58.6,33.0,30.13,North,0,2.5,2.5,38,0.00,,,0.00,LWC V2.10 B1813,2014-01-06 19:49:00,
2014-01-06 11:54:00,58.5,32.8,30.12,North,0,3.1,3.1,38,0.00,,,0.00,LWC V2.10 B1813,2014-01-06 19:54:00,
2014-01-06 11:59:00,58.6,33.0,30.12,NNW,337,2.2,2.2,38,0.00,,,0.00,LWC V2.10 B1813,2014-01-06 19:59:00,
2014-01-06 12:04:00,58.8,32.4,30.11,North,0,3.1,3.1,37,0.00,,,0.00,LWC V2.10 B1813,2014-01-06 20:04:00,
2014-01-06 12:09:00,59.0,32.6,30.11,WNW,292,0.7,0.7,37,0.00,,,0.00,LWC V2.10 B1813,2014-01-06 20:09:00,
2014-01-06 12:14:00,59.2,32.7,30.11,NNW,337,2.5,2.5,37,0.00,,,0.00,LWC V2.10 B1813,2014-01-06 20:14:00,
2014-01-06 12:19:00,59.2,32.7,30.10,North,0,6.9,6.9,37,0.00,,,0.00,LWC V2.10 B1813,2014-01-06 20:19:00,
2014-01-06 12:24:00,59.2,32.7,30.10,North,0,0.0,4.5,37,0.00,,,0.00,LWC V2.10 B1813,2014-01-06 20:24:00,
2014-01-06 12:29:00,59.2,32.7,30.10,North,0,0.0,0.0,37,0.00,,,0.00,LWC V2.10 B1813,2014-01-06 20:29:00,
2014-01-06 12:34:00,59.0,32.6,30.10,North,0,0.0,0.0,37,0.00,,,0.00,LWC V2.10 B1813,2014-01-06 20:34:00,
2014-01-06 12:39:00,60.4,33.8,30.09,North,0,0.0,3.8,37,0.00,,,0.00,LWC V2.10 B1813,2014-01-06 20:39:00,
2014-01-06 12:44:00,61.5,33.4,30.09,North,0,6.5,6.5,35,0.00,,,0.00,LWC V2.10 B1813,2014-01-06 20:44:00,
2014-01-06 12:49:00,62.2,33.5,30.07,North,0,3.8,3.8,34,0.00,,,0.00,LWC V2.10 B1813,2014-01-06 20:49:00,
2014-01-06 12:54:00,62.8,33.8,30.08,North,0,7.2,7.2,34,0.00,,,0.00,LWC V2.10 B1813,2014-01-06 20:54:00,
2014-01-06 12:59:00,62.8,33.8,30.08,North,0,0.0,0.0,34,0.00,,,0.00,LWC V2.10 B1813,2014-01-06 20:59:00,
2014-01-06 13:04:00,63.1,34.1,30.07,NNE,22,1.1,1.1,34,0.00,,,0.00,LWC V2.10 B1813,2014-01-06 21:04:00,
2014-01-06 13:09:00,63.1,34.1,30.07,North,0,6.5,6.5,34,0.00,,,0.00,LWC V2.10 B1813,2014-01-06 21:09:00,
2014-01-06 13:14:00,62.6,33.6,30.07,North,0,4.7,4.7,34,0.00,,,0.00,LWC V2.10 B1813,2014-01-06 21:14:00,
2014-01-06 13:19:00,62.2,33.3,30.07,North,0,0.4,6.9,34,0.00,,,0.00,LWC V2.10 B1813,2014-01-06 21:19:00,
2014-01-06 13:24:00,62.2,33.3,30.07,North,0,0.0,0.9,34,0.00,,,0.00,LWC V2.10 B1813,2014-01-06 21:24:00,
2014-01-06 13:29:00,62.2,33.3,30.07,North,0,4.0,4.0,34,0.00,,,0.00,LWC V2.10 B1813,2014-01-06 21:29:00,
2014-01-06 13:34:00,62.4,33.5,30.07,North,0,4.9,9.2,34,0.00,,,0.00,LWC V2.10 B1813,2014-01-06 21:34:00,
2014-01-06 13:39:00,62.6,33.6,30.06,North,0,3.1,6.9,34,0.00,,,0.00,LWC V2.10 B1813,2014-01-06 21:39:00,
2014-01-06 13:44:00,62.6,33.6,30.06,North,0,4.9,4.9,34,0.00,,,0.00,LWC V2.10 B1813,2014-01-06 21:44:00,
2014-01-06 13:49:00,62.2,33.5,30.06,NNW,337,1.1,1.3,34,0.00,,,0.00,LWC V2.10 B1813,2014-01-06 21:49:00,
2014-01-06 13:54:00,62.1,33.9,30.06,North,0,0.0,2.0,35,0.00,,,0.00,LWC V2.10 B1813,2014-01-06 21:54:00,
2014-01-06 13:59:00,61.5,33.4,30.07,North,0,2.7,2.7,35,0.00,,,0.00,LWC V2.10 B1813,2014-01-06 21:59:00,
2014-01-06 14:04:00,61.0,33.6,30.07,North,0,1.1,3.4,36,0.00,,,0.00,LWC V2.10 B1813,2014-01-06 22:04:00,
2014-01-06 14:09:00,60.6,33.3,30.06,North,0,0.0,2.0,36,0.00,,,0.00,LWC V2.10 B1813,2014-01-06 22:09:00,
2014-01-06 14:14:00,60.6,33.3,30.07,North,0,0.0,0.0,36,0.00,,,0.00,LWC V2.10 B1813,2014-01-06 22:14:00,
2014-01-06 14:19:00,60.4,33.7,30.07,North,0,3.6,3.6,37,0.00,,,0.00,LWC V2.10 B1813,2014-01-06 22:19:00,
2014-01-06 14:24:00,60.1,33.5,30.07,NNW,337,0.0,0.0,37,0.00,,,0.00,LWC V2.10 B1813,2014-01-06 22:24:00,
2014-01-06 14:29:00,59.9,33.4,30.07,North,0,0.0,0.0,37,0.00,,,0.00,LWC V2.10 B1813,2014-01-06 22:29:00,
2014-01-06 14:34:00,59.7,33.2,30.07,NNW,337,0.0,0.0,37,0.00,,,0.00,LWC V2.10 B1813,2014-01-06 22:34:00,
2014-01-06 14:39:00,59.7,33.2,30.07,North,0,0.0,0.0,37,0.00,,,0.00,LWC V2.10 B1813,2014-01-06 22:39:00,
2014-01-06 14:44:00,59.5,33.1,30.07,NNW,337,0.0,0.0,37,0.00,,,0.00,LWC V2.10 B1813,2014-01-06 22:44:00,
2014-01-06 14:49:00,59.4,33.6,30.06,North,0,3.4,3.4,38,0.00,,,0.00,LWC V2.10 B1813,2014-01-06 22:49:00,
2014-01-06 14:54:00,59.2,33.4,30.07,North,0,0.0,0.0,38,0.00,,,0.00,LWC V2.10 B1813,2014-01-06 22:54:00,
2014-01-06 14:59:00,59.2,33.4,30.07,North,0,0.0,0.0,38,0.00,,,0.00,LWC V2.10 B1813,2014-01-06 22:59:00,
2014-01-06 15:04:00,59.0,34.0,30.06,North,0,5.1,5.1,39,0.00,,,0.00,LWC V2.10 B1813,2014-01-06 23:04:00,
2014-01-06 15:09:00,58.8,33.8,30.06,NNE,22,6.3,6.3,39,0.00,,,0.00,LWC V2.10 B1813,2014-01-06 23:09:00,
2014-01-06 15:14:00,58.8,33.8,30.06,North,0,0.0,0.0,39,0.00,,,0.00,LWC V2.10 B1813,2014-01-06 23:14:00,
2014-01-06 15:19:00,58.8,33.8,30.05,North,0,0.0,0.0,39,0.00,,,0.00,LWC V2.10 B1813,2014-01-06 23:19:00,
2014-01-06 15:24:00,58.8,33.8,30.05,NW,315,0.0,0.0,39,0.00,,,0.00,LWC V2.10 B1813,2014-01-06 23:24:00,
2014-01-06 15:29:00,58.8,34.5,30.05,North,0,0.0,0.0,40,0.00,,,0.00,LWC V2.10 B1813,2014-01-06 23:29:00,
2014-01-06 15:34:00,58.8,34.5,30.05,North,0,0.0,0.0,40,0.00,,,0.00,LWC V2.10 B1813,2014-01-06 23:34:00,
2014-01-06 15:39:00,58.6,34.4,30.05,North,0,4.5,4.5,40,0.00,,,0.00,LWC V2.10 B1813,2014-01-06 23:39:00,
2014-01-06 15:44:00,58.6,35.0,30.05,North,0,1.3,1.3,41,0.00,,,0.00,LWC V2.10 B1813,2014-01-06 23:44:00,
2014-01-06 15:49:00,58.3,35.0,30.05,North,0,0.0,0.0,41,0.00,,,0.00,LWC V2.10 B1813,2014-01-06 23:49:00,
2014-01-06 15:54:00,58.3,34.6,30.05,North,0,0.0,0.0,41,0.00,,,0.00,LWC V2.10 B1813,2014-01-06 23:54:00,
2014-01-06 15:59:00,58.1,34.5,30.05,North,0,0.0,0.0,41,0.00,,,0.00,LWC V2.10 B1813,2014-01-06 23:59:00,
2014-01-06 16:04:00,58.1,34.5,30.05,North,0,0.0,2.2,41,0.00,,,0.00,LWC V2.10 B1813,2014-01-07 00:04:00,
2014-01-06 16:09:00,57.9,34.3,30.05,North,0,0.0,0.0,41,0.00,,,0.00,LWC V2.10 B1813,2014-01-07 00:09:00,
2014-01-06 16:14:00,57.9,34.3,30.05,NNW,337,0.0,0.0,41,0.00,,,0.00,LWC V2.10 B1813,2014-01-07 00:14:00,
2014-01-06 16:24:00,57.7,34.7,30.05,North,0,0.0,0.0,42,0.00,,,0.00,LWC V2.10 B1813,2014-01-07 00:24:00,
2014-01-06 16:29:00,57.6,34.6,30.05,NNE,22,0.0,0.0,42,0.00,,,0.00,LWC V2.10 B1813,2014-01-07 00:29:00,
2014-01-06 16:34:00,57.4,34.4,30.05,North,0,0.9,2.7,42,0.00,,,0.00,LWC V2.10 B1813,2014-01-07 00:34:00,
2014-01-06 16:39:00,57.4,35.0,30.05,North,0,0.0,0.0,43,0.00,,,0.00,LWC V2.10 B1813,2014-01-07 00:39:00,
2014-01-06 16:44:00,57.4,35.0,30.04,WNW,292,0.0,0.0,43,0.00,,,0.00,LWC V2.10 B1813,2014-01-07 00:44:00,
2014-01-06 16:49:00,57.4,35.0,30.05,NW,315,0.0,0.0,43,0.00,,,0.00,LWC V2.10 B1813,2014-01-07 00:49:00,
2014-01-06 16:54:00,57.4,35.0,30.05,NNW,337,0.0,0.0,43,0.00,,,0.00,LWC V2.10 B1813,2014-01-07 00:54:00,
2014-01-06 16:59:00,57.4,35.0,30.04,NNW,337,0.0,0.0,43,0.00,,,0.00,LWC V2.10 B1813,2014-01-07 00:59:00,
2014-01-06 17:04:00,57.4,35.0,30.04,North,0,0.0,0.0,43,0.00,,,0.00,LWC V2.10 B1813,2014-01-07 01:04:00,
2014-01-06 17:09:00,57.4,35.0,30.05,NNW,337,0.0,0.0,43,0.00,,,0.00,LWC V2.10 B1813,2014-01-07 01:09:00,
2014-01-06 17:14:00,57.0,34.6,30.04,WNW,292,0.0,0.0,43,0.00,,,0.00,LWC V2.10 B1813,2014-01-07 01:14:00,
2014-01-06 17:19:00,57.0,34.6,30.04,WNW,292,0.0,0.0,43,0.00,,,0.00,LWC V2.10 B1813,2014-01-07 01:19:00,
2014-01-06 17:24:00,57.0,34.6,30.05,NNW,337,0.0,0.0,43,0.00,,,0.00,LWC V2.10 B1813,2014-01-07 01:24:00,
2014-01-06 17:29:00,57.0,34.6,30.05,NW,315,0.0,0.0,43,0.00,,,0.00,LWC V2.10 B1813,2014-01-07 01:29:00,
2014-01-06 17:34:00,57.0,34.6,30.05,WNW,292,0.0,0.0,43,0.00,,,0.00,LWC V2.10 B1813,2014-01-07 01:34:00,
2014-01-06 17:39:00,57.0,34.6,30.05,WNW,292,0.0,0.0,43,0.00,,,0.00,LWC V2.10 B1813,2014-01-07 01:39:00,
2014-01-06 17:44:00,57.0,35.2,30.05,NW,315,0.0,0.0,44,0.00,,,0.00,LWC V2.10 B1813,2014-01-07 01:44:00,
2014-01-06 17:49:00,57.0,35.2,30.05,NNW,337,0.0,0.0,44,0.00,,,0.00,LWC V2.10 B1813,2014-01-07 01:49:00,
2014-01-06 17:54:00,57.0,35.2,30.06,NNW,337,0.0,0.0,44,0.00,,,0.00,LWC V2.10 B1813,2014-01-07 01:54:00,
2014-01-06 17:59:00,57.0,35.2,30.06,NNW,337,0.0,0.0,44,0.00,,,0.00,LWC V2.10 B1813,2014-01-07 01:59:00,
2014-01-06 18:04:00,57.0,35.8,30.06,NW,315,0.0,0.0,45,0.00,,,0.00,LWC V2.10 B1813,2014-01-07 02:04:00,
2014-01-06 18:09:00,57.0,35.8,30.06,NW,315,0.0,0.0,45,0.00,,,0.00,LWC V2.10 B1813,2014-01-07 02:09:00,
2014-01-06 18:14:00,57.0,35.8,30.07,NW,315,0.0,0.0,45,0.00,,,0.00,LWC V2.10 B1813,2014-01-07 02:14:00,
2014-01-06 18:19:00,57.0,35.8,30.06,NW,315,0.0,0.0,45,0.00,,,0.00,LWC V2.10 B1813,2014-01-07 02:19:00,
2014-01-06 18:24:00,57.0,35.8,30.06,North,0,0.0,0.0,45,0.00,,,0.00,LWC V2.10 B1813,2014-01-07 02:24:00,
2014-01-06 18:29:00,57.0,35.8,30.06,NNW,337,0.0,0.0,45,0.00,,,0.00,LWC V2.10 B1813,2014-01-07 02:29:00,
2014-01-06 18:34:00,57.0,35.8,30.06,NNW,337,0.0,0.0,45,0.00,,,0.00,LWC V2.10 B1813,2014-01-07 02:34:00,
2014-01-06 18:39:00,57.0,35.8,30.06,NNW,337,0.0,0.0,45,0.00,,,0.00,LWC V2.10 B1813,2014-01-07 02:39:00,
2014-01-06 18:44:00,57.0,35.8,30.07,North,0,0.0,0.0,45,0.00,,,0.00,LWC V2.10 B1813,2014-01-07 02:44:00,
2014-01-06 18:49:00,57.0,36.4,30.07,North,0,0.0,0.0,46,0.00,,,0.00,LWC V2.10 B1813,2014-01-07 02:49:00,
2014-01-06 18:54:00,57.0,36.4,30.07,North,0,2.0,2.0,46,0.00,,,0.00,LWC V2.10 B1813,2014-01-07 02:54:00,
2014-01-06 18:59:00,57.0,36.4,30.07,North,0,0.0,0.0,46,0.00,,,0.00,LWC V2.10 B1813,2014-01-07 02:59:00,
2014-01-06 19:04:00,57.0,36.4,30.07,NW,315,0.7,0.7,46,0.00,,,0.00,LWC V2.10 B1813,2014-01-07 03:04:00,
2014-01-06 19:09:00,56.8,36.2,30.07,NW,315,0.0,0.0,46,0.00,,,0.00,LWC V2.10 B1813,2014-01-07 03:09:00,
2014-01-06 19:14:00,57.0,36.2,30.08,NNW,337,0.0,0.0,46,0.00,,,0.00,LWC V2.10 B1813,2014-01-07 03:14:00,
2014-01-06 19:19:00,56.8,36.2,30.08,NW,315,0.0,0.0,46,0.00,,,0.00,LWC V2.10 B1813,2014-01-07 03:19:00,
2014-01-06 19:24:00,56.8,36.2,30.09,NNW,337,0.0,0.0,46,0.00,,,0.00,LWC V2.10 B1813,2014-01-07 03:24:00,
2014-01-06 19:34:00,56.8,35.6,30.09,North,0,0.0,0.0,45,0.00,,,0.00,LWC V2.10 B1813,2014-01-07 03:34:00,
2014-01-06 19:39:00,56.8,35.6,30.08,North,0,0.0,0.0,45,0.00,,,0.00,LWC V2.10 B1813,2014-01-07 03:39:00,
2014-01-06 19:44:00,56.8,35.6,30.08,North,0,0.0,0.0,45,0.00,,,0.00,LWC V2.10 B1813,2014-01-07 03:44:00,
2014-01-06 19:49:00,56.8,35.6,30.08,NNW,337,1.1,1.1,45,0.00,,,0.00,LWC V2.10 B1813,2014-01-07 03:49:00,
2014-01-06 19:54:00,56.7,35.4,30.09,NNW,337,0.0,0.0,45,0.00,,,0.00,LWC V2.10 B1813,2014-01-07 03:54:00,
2014-01-06 19:59:00,56.7,34.9,30.09,North,0,0.0,0.0,44,0.00,,,0.00,LWC V2.10 B1813,2014-01-07 03:59:00,
2014-01-06 20:09:00,56.5,34.7,30.09,NNW,337,0.0,0.0,44,0.00,,,0.00,LWC V2.10 B1813,2014-01-07 04:09:00,
2014-01-06 20:14:00,56.5,34.7,30.09,North,0,0.0,0.0,44,0.00,,,0.00,LWC V2.10 B1813,2014-01-07 04:14:00,
2014-01-06 20:19:00,56.3,34.5,30.09,North,0,0.0,0.0,44,0.00,,,0.00,LWC V2.10 B1813,2014-01-07 04:19:00,
2014-01-06 20:24:00,56.3,34.0,30.08,NNW,337,0.0,0.0,43,0.00,,,0.00,LWC V2.10 B1813,2014-01-07 04:24:00,
2014-01-06 20:29:00,56.3,34.0,30.08,North,0,0.0,0.0,43,0.00,,,0.00,LWC V2.10 B1813,2014-01-07 04:29:00,
2014-01-06 20:34:00,56.3,34.0,30.08,North,0,0.0,0.0,43,0.00,,,0.00,LWC V2.10 B1813,2014-01-07 04:34:00,
2014-01-06 20:39:00,56.3,34.0,30.08,North,0,0.0,0.0,43,0.00,,,0.00,LWC V2.10 B1813,2014-01-07 04:39:00,
2014-01-06 20:44:00,56.3,34.0,30.07,NNW,337,0.0,0.0,43,0.00,,,0.00,LWC V2.10 B1813,2014-01-07 04:44:00,
2014-01-06 20:49:00,56.1,34.4,30.08,NNW,337,0.0,0.0,44,0.00,,,0.00,LWC V2.10 B1813,2014-01-07 04:49:00,
2014-01-06 20:54:00,56.1,34.4,30.08,North,0,0.0,0.0,44,0.00,,,0.00,LWC V2.10 B1813,2014-01-07 04:54:00,
2014-01-06 20:59:00,55.9,34.2,30.07,NNW,337,0.0,0.0,44,0.00,,,0.00,LWC V2.10 B1813,2014-01-07 04:59:00,
2014-01-06 21:04:00,55.9,34.2,30.07,NNW,337,0.0,0.0,44,0.00,,,0.00,LWC V2.10 B1813,2014-01-07 05:04:00,
2014-01-06 21:09:00,55.9,34.2,30.07,NNW,337,0.0,0.0,44,0.00,,,0.00,LWC V2.10 B1813,2014-01-07 05:09:00,
2014-01-06 21:14:00,55.8,34.0,30.06,NNW,337,0.0,0.0,44,0.00,,,0.00,LWC V2.10 B1813,2014-01-07 05:14:00,
2014-01-06 21:19:00,55.9,34.2,30.06,NNW,337,0.0,0.0,44,0.00,,,0.00,LWC V2.10 B1813,2014-01-07 05:19:00,
2014-01-06 21:24:00,55.9,34.2,30.06,NW,315,1.1,1.1,44,0.00,,,0.00,LWC V2.10 B1813,2014-01-07 05:24:00,
2014-01-06 21:29:00,55.9,34.2,30.06,NW,315,0.0,1.6,44,0.00,,,0.00,LWC V2.10 B1813,2014-01-07 05:29:00,
2014-01-06 21:34:00,55.9,33.6,30.06,NW,315,0.0,0.0,43,0.00,,,0.00,LWC V2.10 B1813,2014-01-07 05:34:00,
2014-01-06 21:39:00,55.9,34.2,30.06,WNW,292,0.0,0.0,44,0.00,,,0.00,LWC V2.10 B1813,2014-01-07 05:39:00,
2014-01-06 21:44:00,55.9,34.2,30.06,North,0,0.0,0.0,44,0.00,,,0.00,LWC V2.10 B1813,2014-01-07 05:44:00,
2014-01-06 21:49:00,56.1,34.4,30.06,NNW,337,0.0,0.0,44,0.00,,,0.00,LWC V2.10 B1813,2014-01-07 05:49:00,
2014-01-06 21:54:00,56.1,34.4,30.06,North,0,0.0,0.0,44,0.00,,,0.00,LWC V2.10 B1813,2014-01-07 05:54:00,
2014-01-06 21:59:00,55.9,34.2,30.06,North,0,0.0,0.0,44,0.00,,,0.00,LWC V2.10 B1813,2014-01-07 05:59:00,
2014-01-06 22:04:00,55.9,33.6,30.06,North,0,0.0,0.0,43,0.00,,,0.00,LWC V2.10 B1813,2014-01-07 06:04:00,
2014-01-06 22:09:00,55.9,33.6,30.06,NW,315,0.0,0.0,43,0.00,,,0.00,LWC V2.10 B1813,2014-01-07 06:09:00,
2014-01-06 22:14:00,55.9,33.6,30.06,NW,315,0.0,0.0,43,0.00,,,0.00,LWC V2.10 B1813,2014-01-07 06:14:00,
2014-01-06 22:19:00,55.9,33.6,30.06,NNW,337,0.9,0.9,43,0.00,,,0.00,LWC V2.10 B1813,2014-01-07 06:19:00,
2014-01-06 22:24:00,55.9,33.6,30.06,NNW,337,0.0,0.0,43,0.00,,,0.00,LWC V2.10 B1813,2014-01-07 06:24:00,
2014-01-06 22:29:00,55.9,33.6,30.05,NNW,337,0.0,0.0,43,0.00,,,0.00,LWC V2.10 B1813,2014-01-07 06:29:00,
2014-01-06 22:34:00,55.9,33.6,30.05,NNW,337,0.0,0.0,43,0.00,,,0.00,LWC V2.10 B1813,2014-01-07 06:34:00,
2014-01-06 22:39:00,55.9,33.6,30.06,NNW,337,0.0,0.0,43,0.00,,,0.00,LWC V2.10 B1813,2014-01-07 06:39:00,
2014-01-06 22:44:00,55.9,34.2,30.06,NNW,337,0.0,0.0,43,0.00,,,0.00,LWC V2.10 B1813,2014-01-07 06:44:00,
2014-01-06 22:49:00,55.9,34.2,30.06,NNW,337,0.0,0.0,44,0.00,,,0.00,LWC V2.10 B1813,2014-01-07 06:49:00,
2014-01-06 22:54:00,55.9,34.2,30.06,NNW,337,0.0,0.0,44,0.00,,,0.00,LWC V2.10 B1813,2014-01-07 06:54:00,
2014-01-06 22:59:00,55.8,34.0,30.06,NNW,337,0.0,0.0,44,0.00,,,0.00,LWC V2.10 B1813,2014-01-07 06:59:00,
2014-01-06 23:04:00,55.6,33.9,30.06,NNW,337,0.0,0.0,44,0.00,,,0.00,LWC V2.10 B1813,2014-01-07 07:04:00,
2014-01-06 23:09:00,55.6,33.9,30.06,NNW,337,0.0,0.0,44,0.00,,,0.00,LWC V2.10 B1813,2014-01-07 07:09:00,
2014-01-06 23:14:00,55.4,33.7,30.06,NNW,337,0.0,0.0,44,0.00,,,0.00,LWC V2.10 B1813,2014-01-07 07:14:00,
2014-01-06 23:19:00,55.2,33.5,30.06,NNW,337,0.0,0.0,44,0.00,,,0.00,LWC V2.10 B1813,2014-01-07 07:19:00,
2014-01-06 23:24:00,55.2,33.5,30.07,NNW,337,0.0,0.0,44,0.00,,,0.00,LWC V2.10 B1813,2014-01-07 07:24:00,
2014-01-06 23:29:00,55.0,33.5,30.07,NNW,337,0.0,0.0,44,0.00,,,0.00,LWC V2.10 B1813,2014-01-07 07:29:00,
2014-01-06 23:34:00,55.0,33.4,30.07,NNW,337,0.0,0.0,44,0.00,,,0.00,LWC V2.10 B1813,2014-01-07 07:34:00,
2014-01-06 23:39:00,54.9,33.8,30.07,NNW,337,0.0,0.0,45,0.00,,,0.00,LWC V2.10 B1813,2014-01-07 07:39:00,
2014-01-06 23:44:00,54.7,33.6,30.07,NNW,337,0.0,0.0,45,0.00,,,0.00,LWC V2.10 B1813,2014-01-07 07:44:00,
2014-01-06 23:49:00,54.7,33.0,30.07,North,0,0.0,0.0,44,0.00,,,0.00,LWC V2.10 B1813,2014-01-07 07:49:00,
2014-01-06 23:54:00,54.7,33.0,30.07,NNW,337,0.0,0.0,44,0.00,,,0.00,LWC V2.10 B1813,2014-01-07 07:54:00,
2014-01-06 23:59:00,54.7,33.0,30.07,NNW,337,0.0,0.0,44,0.00,,,0.00,LWC V2.10 B1813,2014-01-07 07:59:00,